TimeBST,TemperatureF,Dew PointF,Humidity,Sea Level PressureIn,VisibilityMPH,Wind Direction,Wind SpeedMPH,Gust SpeedMPH,PrecipitationIn,Events,Conditions,WindDirDegrees,DateUTC
12:50 AM,48,48,98,30.27,0,SSW,4.6,,,Rain,Light Drizzle,200,2013-04-24 23:50:00
12:50 AM,48.2,48.2,100,30.24,0.5,SSW,4.6,-,N/A,,Light Drizzle,200,2013-04-24 23:50:00
1:50 AM,48.2,48.2,100,30.24,0.7,SW,4.6,-,N/A,,Light Drizzle,220,2013-04-25 00:50:00
2:50 AM,48.2,48.2,100,30.21,1.2,SSW,4.6,-,N/A,,Overcast,200,2013-04-25 01:50:00
3:50 AM,48,48,98,30.23,2,SSW,5.8,,,,Mist,200,2013-04-25 02:50:00
3:50 AM,48.2,48.2,100,30.21,1.9,SSW,5.8,-,N/A,,Overcast,200,2013-04-25 02:50:00
4:50 AM,48.2,48.2,100,30.21,1.9,SSW,5.8,-,N/A,,Overcast,200,2013-04-25 03:50:00
5:50 AM,48.2,46.4,93,30.18,3.1,SSW,6.9,-,N/A,,Overcast,200,2013-04-25 04:50:00
6:50 AM,48,47,94,30.21,2,SW,6.9,,,,Mist,220,2013-04-25 05:50:00
6:50 AM,48.2,46.4,93,30.18,1.9,SW,6.9,-,N/A,,Overcast,220,2013-04-25 05:50:00
7:50 AM,48.2,46.4,93,30.21,2.8,SW,6.9,-,N/A,,Haze,230,2013-04-25 06:50:00
8:50 AM,48.2,46.4,93,30.21,2.5,SW,9.2,-,N/A,,Haze,230,2013-04-25 07:50:00
9:50 AM,49,47,91,30.22,2,SW,8.1,,,,Haze,230,2013-04-25 08:50:00
9:50 AM,50.0,46.4,87,30.18,2.5,SW,8.1,-,N/A,,Haze,230,2013-04-25 08:50:00
10:50 AM,50.0,48.2,94,30.21,3.7,West,6.9,-,N/A,,Mostly Cloudy,270,2013-04-25 09:50:00
11:50 AM,51.8,48.2,88,30.18,6.2,WSW,5.8,-,N/A,,Light Drizzle,250,2013-04-25 10:50:00
12:50 PM,53,49,80,30.20,12,WSW,6.9,,,Rain,Light Drizzle,240,2013-04-25 11:50:00
12:50 PM,51.8,48.2,88,30.18,6.2,WSW,6.9,-,N/A,,Mostly Cloudy,240,2013-04-25 11:50:00
1:50 PM,53.6,48.2,82,30.15,6.2,WSW,6.9,-,N/A,,Mostly Cloudy,240,2013-04-25 12:50:00
2:50 PM,53.6,48.2,82,30.15,6.2,WSW,6.9,-,N/A,,Mostly Cloudy,240,2013-04-25 13:50:00
3:50 PM,51,48,87,30.17,12,West,6.9,,,,Mostly Cloudy,280,2013-04-25 14:50:00
3:50 PM,51.8,48.2,88,30.15,6.2,West,6.9,-,N/A,,Mostly Cloudy,280,2013-04-25 14:50:00
4:50 PM,53.6,48.2,82,30.15,6.2,West,6.9,-,N/A,,Mostly Cloudy,260,2013-04-25 15:50:00
5:50 PM,53.6,48.2,82,30.12,6.2,NNW,9.2,-,N/A,,Haze,330,2013-04-25 16:50:00
6:50 PM,52,49,85,30.14,4,NNW,10.4,,,Rain,Light Drizzle,330,2013-04-25 17:50:00
6:50 PM,51.8,48.2,88,30.12,3.7,NNW,10.4,-,N/A,,Light Drizzle,330,2013-04-25 17:50:00
7:07 PM,51.8,48.2,88,30.12,3.1,NNW,8.1,-,N/A,,Light Drizzle,330,2013-04-25 18:07:00
7:50 PM,50.0,50.0,100,30.12,0.6,NNW,8.1,-,N/A,,Light Drizzle,340,2013-04-25 18:50:00
8:46 PM,48.2,48.2,100,30.12,1.9,NNE,11.5,-,N/A,,Light Drizzle,20,2013-04-25 19:46:00
8:50 PM,48.2,46.4,93,30.12,3.1,NNE,11.5,-,N/A,,Light Drizzle,20,2013-04-25 19:50:00
9:50 PM,48,44,81,30.18,16,North,8.1,,,Rain,Light Drizzle,10,2013-04-25 20:50:00
9:50 PM,48.2,44.6,87,30.15,6.2,North,8.1,-,N/A,,Mostly Cloudy,10,2013-04-25 20:50:00
10:50 PM,48.2,44.6,87,30.15,6.2,NNE,9.2,-,N/A,Rain,Light Rain,30,2013-04-25 21:50:00
11:50 PM,46.4,44.6,93,30.15,6.2,North,10.4,-,N/A,,Mostly Cloudy,350,2013-04-25 22:50:00